This demonstration page uses our WeatherBlox Daily Observations layout. Learn more.

Left ArrowRight Arrow

Hourly Observations for December 4, 2018

Temp ( °F °C ) Dew Point ( °F °C ) Humidity (%) Winds ( mph kmh ) Pressure ( in mb ) Visibility ( mi km ) Precip ( " mm )
12:53 am 00:53 Cloudy 23 -5 17 -8.3 78 78 NNW 5 7 30.37 1029 10 16 0.00 0.00
1:53 am 01:53 Cloudy 23 -5 17 -8.3 78 78 WNW 5 7 30.36 1028 10 16 0.00 0.00
2:53 am 02:53 Cloudy 23 -5 18 -7.8 81 81 WNW 6 9 30.37 1028 10 16 0.00 0.00
3:53 am 03:53 Cloudy 23 -5 18 -7.8 81 81 W 5 7 30.36 1028 10 16 0.00 0.00
4:53 am 04:53 Cloudy 24 -4.4 19 -7.2 81 81 SW 3 6 30.35 1028 10 16 0.00 0.00
5:53 am 05:53 Cloudy 24 -4.4 19 -7.2 81 81 WSW 6 9 30.35 1028 10 16 0.00 0.00
6:53 am 06:53 Cloudy 25 -3.9 19 -7.2 78 78 WNW 7 11 30.35 1028 10 16 0.00 0.00
7:53 am 07:53 Cloudy 26 -3.3 20 -6.7 78 78 WNW 5 7 30.33 1027 10 16 0.00 0.00
8:53 am 08:53 Cloudy 26 -3.3 20 -6.7 78 78 W 6 9 30.34 1027 10 16 0.00 0.00
9:53 am 09:53 Cloudy 27 -2.8 20 -6.7 75 75 W 7 11 30.33 1027 10 16 0.00 0.00
10:53 am 10:53 Cloudy 29 -1.7 22 -5.6 75 75 WSW 7 11 30.33 1027 10 16 0.00 0.00
11:53 am 11:53 Cloudy 30 -1.1 22 -5.6 72 72 W 9 15 30.31 1026 10 16 0.00 0.00
12:53 pm 12:53 Cloudy 30 -1.1 23 -5 75 75 W 10 17 30.29 1026 10 16 0.00 0.00
1:53 pm 13:53 Cloudy 31 -0.6 23 -5 72 72 WSW 8 13 30.26 1025 10 16 0.00 0.00
2:26 pm 14:26 Mostly Sunny 32 0 25 -4 75 75 W 9 15 30.27 1025 10 16 0.00 0.00
2:53 pm 14:53 Partly Cloudy 33 0.6 24 -4.4 70 70 W 12 19 30.25 1024 10 16 0.00 0.00
3:53 pm 15:53 Cloudy 33 0.6 24 -4.4 70 70 W 16 26 30.24 1024 10 16 0.00 0.00
4:06 pm 16:06 Cloudy 33 0.6 24 -4.4 70 70 W 16 26 30.24 1024 10 16 0.00 0.00
4:43 pm 16:43 Cloudy 32 0 25 -3.9 75 75 WSW 14 22 30.27 1025 9 14 0.00 0.00
4:53 pm 16:53 Partly Cloudy 31 -0.6 24 -4.4 76 76 W 9 15 30.25 1024 9 14 0.00 0.00
5:53 pm 17:53 Clear 29 -1.7 24 -4.4 82 82 WSW 7 11 30.25 1024 9 14 0.00 0.00
6:53 pm 18:53 Clear 29 -1.7 24 -4.4 82 82 W 10 17 30.24 1024 9 14 0.00 0.00
7:53 pm 19:53 Clear 30 -1.1 24 -4.4 79 79 W 13 20 30.24 1024 9 14 0.00 0.00
8:53 pm 20:53 Clear 28 -2.2 22 -5.6 78 78 W 12 19 30.25 1024 9 14 0.00 0.00
9:53 pm 21:53 Clear 27 -2.8 22 -5.6 81 81 W 13 20 30.26 1025 8 13 0.00 0.00
10:53 pm 22:53 Clear 27 -2.8 21 -6.1 78 78 W 13 20 30.27 1025 9 14 0.00 0.00
11:53 pm 23:53 Clear 26 -3.3 19 -7.2 75 75 WNW 10 17 30.26 1025 10 16 0.00 0.00

Powered by AerisWeather